Location: Carrer del Canonge
(41.4901°N, 2.2931°E)
Time: 04:41:15
(UTC+00:00)

BREEZE-M DEB (TANK) - Pass Details

Date: 18 September 2020
Orbit: 315 x 16294 km, 49.4° (Epoch: 25 October)

Event Time Altitude Azimuth Distance (km) Brightness Sun altitude
Rises 20:33:43 0° 296° (WNW) 2,659 7.0 -29.1°
Reaches altitude 10° 20:35:05 10° 292° (WNW) 2,062 6.1 -29.4°
Maximum altitude 20:39:15 62° 211° (SSW) 1,321 4.0 -30.0°
Enters shadow 20:40:25 55° 173° (S) 1,599 4.3 -30.2°
